Simultaneous Nadir Overpasses (SNOs) Predictions

Prediction of SNOs between LANDSAT-8 and METOP-B Satellite Orbit:

Table of predicted SNOs for the next 14.0 days since TLE Epoch: 9/2/2023
Index Date (LANDSAT-8) Time (LANDSAT-8) Lat,Lon (LANDSAT-8) SZA (LANDSAT-8 ) Date (METOP-B) Time (METOP-B) Lat,Lon (METOP-B) SZA (METOP-B ) Distance(km) Time Diff (sec)
1 09/02/2023 19:28:13 81.23, -70.26 75.70 09/02/2023 19:28:02 81.23, -70.11 75.71 2.66 11
2 09/02/2023 20:17:39 -81.25, 97.66 104.25 09/02/2023 20:18:42 -81.24, 97.52 104.24 2.55 63
3 09/05/2023 15:02:27 81.23, -3.81 76.76 09/05/2023 15:02:22 81.23, -3.85 76.75 0.90 5
4 09/05/2023 15:51:53 -81.25, 164.14 103.19 09/05/2023 15:53:01 -81.25, 164.18 103.16 0.70 68
5 09/08/2023 09:47:15 -81.22,-105.23 102.22 09/08/2023 09:46:02 -81.22,-105.24 102.26 0.29 73
6 09/08/2023 10:36:41 81.22, 62.47 77.80 09/08/2023 10:36:42 81.22, 62.32 77.79 2.39 1
7 09/08/2023 11:26:07 -81.24,-129.57 102.14 09/08/2023 11:27:21 -81.24,-129.62 102.11 0.83 74
8 09/11/2023 05:21:27 -81.22, -38.75 101.13 09/11/2023 05:20:20 -81.22, -38.72 101.16 0.52 67
9 09/11/2023 06:10:53 81.22, 128.93 78.89 09/11/2023 06:11:00 81.23, 128.82 78.88 1.86 7
10 09/14/2023 00:55:40 -81.21, 27.55 100.06 09/14/2023 00:54:39 -81.22, 27.73 100.06 3.17 61



Historial Predications of SNOs between LANDSAT-8 and METOP-B
